TimePDT,TemperatureF,Dew PointF,Humidity,Sea Level PressureIn,VisibilityMPH,Wind Direction,Wind SpeedMPH,Gust SpeedMPH,PrecipitationIn,Events,Conditions,WindDirDegrees,DateUTC
12:53 AM,52.0,46.0,80,30.07,10.0,ENE,3.5,-,N/A,,Partly Cloudy,60,2013-10-30 07:53:00
1:53 AM,52.0,46.0,80,30.07,10.0,ENE,3.5,-,N/A,,Partly Cloudy,60,2013-10-30 08:53:00
2:53 AM,51.1,46.0,83,30.07,10.0,ENE,4.6,-,N/A,,Clear,60,2013-10-30 09:53:00
3:53 AM,51.1,46.0,83,30.08,10.0,ESE,3.5,-,N/A,,Partly Cloudy,110,2013-10-30 10:53:00
4:25 AM,51.8,46.4,82,30.07,10.0,ENE,3.5,-,N/A,,Mostly Cloudy,70,2013-10-30 11:25:00
4:53 AM,50.0,45.0,83,30.08,10.0,NE,3.5,-,N/A,,Scattered Clouds,50,2013-10-30 11:53:00
5:53 AM,50.0,45.0,83,30.10,10.0,ENE,3.5,-,N/A,,Partly Cloudy,60,2013-10-30 12:53:00
5:58 AM,50.0,44.6,82,30.10,10.0,ENE,3.5,-,N/A,,Mostly Cloudy,60,2013-10-30 12:58:00
6:30 AM,50.0,44.6,82,30.10,10.0,East,4.6,-,N/A,,Partly Cloudy,80,2013-10-30 13:30:00
6:53 AM,50.0,45.0,83,30.11,10.0,NE,3.5,-,N/A,,Partly Cloudy,50,2013-10-30 13:53:00
7:53 AM,48.9,45.0,86,30.12,10.0,Calm,Calm,-,N/A,,Partly Cloudy,0,2013-10-30 14:53:00
8:53 AM,50.0,45.0,83,30.14,8.0,Calm,Calm,-,N/A,,Partly Cloudy,0,2013-10-30 15:53:00
9:53 AM,54.0,54.0,100,30.17,6.0,Calm,Calm,-,N/A,,Overcast,0,2013-10-30 16:53:00
10:20 AM,57.2,55.4,94,30.16,6.0,Calm,Calm,-,N/A,,Scattered Clouds,0,2013-10-30 17:20:00
10:53 AM,55.9,55.0,97,30.17,9.0,West,5.8,-,N/A,,Partly Cloudy,280,2013-10-30 17:53:00
11:53 AM,57.0,55.0,93,30.16,6.0,WSW,6.9,-,N/A,,Partly Cloudy,250,2013-10-30 18:53:00
12:53 PM,59.0,55.0,87,30.15,8.0,West,6.9,-,N/A,,Partly Cloudy,270,2013-10-30 19:53:00
1:53 PM,62.1,50.0,65,30.12,10.0,West,8.1,-,N/A,,Partly Cloudy,280,2013-10-30 20:53:00
2:53 PM,64.0,46.9,54,30.11,10.0,West,8.1,-,N/A,,Partly Cloudy,280,2013-10-30 21:53:00
3:53 PM,64.0,52.0,65,30.10,10.0,WNW,9.2,-,N/A,,Partly Cloudy,290,2013-10-30 22:53:00
4:53 PM,64.0,51.1,63,30.09,10.0,WNW,11.5,-,N/A,,Partly Cloudy,300,2013-10-30 23:53:00
5:53 PM,60.1,51.1,72,30.09,10.0,NW,8.1,-,N/A,,Clear,310,2013-10-31 00:53:00
6:53 PM,57.9,51.1,78,30.11,10.0,NW,9.2,-,N/A,,Clear,310,2013-10-31 01:53:00
7:53 PM,57.0,52.0,83,30.12,10.0,NW,5.8,-,N/A,,Clear,320,2013-10-31 02:53:00
8:53 PM,55.9,51.1,84,30.12,10.0,NW,3.5,-,N/A,,Clear,320,2013-10-31 03:53:00
9:53 PM,55.0,52.0,89,30.12,10.0,NW,4.6,-,N/A,,Clear,310,2013-10-31 04:53:00
10:53 PM,55.0,48.0,77,30.14,10.0,NW,3.5,-,N/A,,Clear,310,2013-10-31 05:53:00
11:53 PM,51.1,48.0,89,30.14,10.0,Calm,Calm,-,N/A,,Clear,0,2013-10-31 06:53:00